Regional Weather Roundup
Issued by NWS

Home | Current Version | Previous Version | Graphics & Text | Print | Product List | Glossary On
Versions: 1 2 3 4 5 6 7 8 9 10 11 12 13 14 15 16 17 18 19 20 21 22 23 24 25 26 27 28 29 30 31 32 33 34 35 36 37 38 39 40 41 42 43 44 45 46 47 48 49 50
000
ASUS43 KOAX 251302
RWRNE

WEATHER ROUNDUP FOR NEBRASKA
NATIONAL WEATHER SERVICE OMAHA NE
800 AM CDT SAT APR 25 2015

NOTES: SATELLITE DATA IS BEING USED TO AUGMENT CLOUD COVER ABOVE
       12000 FEET.
       "FAIR" INDICATES FEW OR NO CLOUDS BELOW 12,000 FEET WITH NO
       SIGNIFICANT WEATHER AND/OR OBSTRUCTIONS TO VISIBILITY.

  * THESE STATIONS DO NOT REPORT WEATHER SUCH AS RAIN...SNOW OR FOG.

NEZ001>004-019>022-054>056-251400-
NEBRASKA PANHANDLE

CITY           SKY/WX    TMP DP  RH WIND       PRES   REMARKS
SCOTTSBLUFF    SUNNY     42  32  67 NW3       29.70R
ALLIANCE       SUNNY     38  36  92 N3        29.69R
CHADRON        SUNNY     36  34  92 SW7       29.70R WCI  30
KIMBALL        CLEAR     45  37  72 NW10      29.70R
SIDNEY         SUNNY     42  38  85 N8        29.70R
$$

NEZ057>060-069>072-079>082-251400-
SOUTHWEST NEBRASKA

CITY           SKY/WX    TMP DP  RH WIND       PRES   REMARKS
IMPERIAL       MOSUNNY   48  43  82 N12       29.66R
LEXINGTON      MOSUNNY   51  49  90 N9        29.60R
MCCOOK         MOSUNNY   50  46  86 W8        29.62R
$$

NEZ005>010-023>029-035>040-094-251400-
NORTH CENTRAL NEBRASKA

CITY           SKY/WX    TMP DP  RH WIND       PRES   REMARKS
VALENTINE      CLOUDY    48  46  93 N9        29.66R FOG
AINSWORTH      CLOUDY    49  48  96 NE7       29.66R
BROKEN BOW     CLOUDY    53  49  86 N13       29.62R
ORD            CLOUDY    53  50  89 N12       29.60R FOG
$$

NEZ041-046>049-061>064-073>077-083>087-251400-
SOUTH CENTRAL NEBRASKA

CITY           SKY/WX    TMP DP  RH WIND       PRES   REMARKS
GRAND ISLAND   CLOUDY    52  51  97 NE13      29.57R
AURORA         DRIZZLE   52  52 100 NE18      29.54R
HASTINGS       CLOUDY    54  52  93 N13       29.55R
HEBRON         CLOUDY    55  53  94 N13G18    29.49R
HOLDREGE       CLOUDY    51  50  96 N12G17    29.58R
KEARNEY *      CLOUDY    54  50  87 N13       29.58R
YORK           RAIN      50  50 100 N18       29.54R
$$

NEZ011>018-030>034-042>045-251400-
NORTHEAST NEBRASKA

CITY           SKY/WX    TMP DP  RH WIND       PRES   REMARKS
NORFOLK        CLOUDY    47  45  93 NE20G25   29.59R FOG
ALBION         HVY RAIN  49  47  93 N12G18    29.60R
BLAIR          LGT RAIN  47  45  93 NE16      29.55R
COLUMBUS *     CLOUDY    48  43  81 NE17G28   29.58R
FREMONT        LGT RAIN  50  48  94 NE13      29.56R
TEKAMAH        LGT RAIN  49  46  90 NE9       29.58R
WAYNE          LGT RAIN  46  45  95 NE20      29.62R
$$

NEZ050>053-065>068-078-088>093-251400-
SOUTHEAST NEBRASKA

CITY           SKY/WX    TMP DP  RH WIND       PRES   REMARKS
LINCOLN        LGT RAIN  52  50  93 N18       29.52R
OMAHA EPPLEY   LGT RAIN  50  47  89 N9        29.55R
BEATRICE       DRIZZLE   55  53  95 NE13      29.46R
FALLS CITY     CLOUDY    57  55  93 E10       29.40S
NEBRASKA CITY  CLOUDY    54  54 100 NE10      29.46R
PLATTSMOUTH    DRIZZLE   51  49  93 NE15      29.50R
$$

NEZ044-045-051>053-067-251400-
OMAHA AREA

CITY           SKY/WX    TMP DP  RH WIND       PRES   REMARKS
OMAHA EPPLEY   LGT RAIN  50  47  89 N9        29.55R
BLAIR          LGT RAIN  47  45  93 NE16      29.55R
FREMONT        LGT RAIN  50  48  94 NE13      29.56R
MILLARD        DRIZZLE   51  49  92 N7        29.53R
OFFUTT AFB     CLOUDY    51  49  93 N13       29.51R
PLATTSMOUTH    DRIZZLE   51  49  93 NE15      29.50R
WAHOO          RAIN      50  47  88 NE23G29   29.54R
$$


USA.gov is the U.S. government's official web portal to all federal, state and local government web resources and services.